deb DMSP F-14

Debris
NORAD ID: 62936 Int'l Des: 1997-012 Owner: AFSMC Country: US
LEOCIRCULARRETROGRADE

About deb DMSP F-14

Description loading...

Live Position

Loading 3D Globe...

Upcoming Passes

Altitude History

Altitude vs Time

uPlot chart will show altitude changes over time

Two-Line Element Set

1 62936U 97012G 26062.16938102 .01013168 00000-0 53322-1 0 9997
2 62936 99.1877 143.8557 0050931 247.5979 111.9845 15.11639705 63256
Epoch: Mar 3, 2026 • Age: 20 hours

Current Status

Altitude 531.1 km
Velocity 7.60 km/s
Sub-Earth Point -51.51°S, 59°E
Launch Date Apr 4, 1997
Age 28.9 years
Type debris

Technical Details

Classification Fragmentation Debris
Mass 0.00 kg
Dry Mass 0.00 kg
Total Mass 0.00 kg
Length 0.00 m
Diameter 0.00 m
Span 0.00 m
Manufacturer LMTEW
Phase Status In Orbit
Owner/State AFSMC/US

Large Constellations

Loading constellations...